Location: Mladá Boleslav
(50.4134°N, 14.9084°E)
Time: 17:02:22
(UTC+02:00)

KKS-1 - Pass Details

Date: 26 May 2024
Orbit: 626 x 640 km, 98.1° (Epoch: 20 June)

Event Time Altitude Azimuth Distance (km) Brightness Sun altitude
Rises 01:23:22 0° 6° (N) 2,945 ? -18.2°
Reaches altitude 10° 01:25:45 10° 356° (N) 2,029 ? -18.1°
Maximum altitude 01:29:37 31° 295° (WNW) 1,126 ? -18.1°
Enters shadow 01:32:06 18° 246° (WSW) 1,560 ? -18.0°
